• MPC Preparation (Info)

  • MPEC 2016-L36 : COMET P/2010 N1 = 2016 GE216 (WISE)

    The following Minor Planet Electronic Circular may be linked-to from your own Web pages, but must not otherwise be redistributed electronically.

    A form allowing access to any MPEC is at the bottom of this page.


    Read MPEC 2016-L35 Read MPEC 2016-L37


    M.P.E.C. 2016-L36                                Issued 2016 June 5, 14:44 UT
    
         The Minor Planet Electronic Circulars contain information on unusual
             minor planets and routine data on comets.  They are published
        on behalf of Division F of the International Astronomical Union by the
              Minor Planet Center, Smithsonian Astrophysical Observatory,
                              Cambridge, MA 02138, U.S.A.
    
                 Prepared using the Tamkin Foundation Computer Network
    
                                  MPC@CFA.HARVARD.EDU
                URL https://www.minorplanetcenter.net/    ISSN 1523-6714
    
                          COMET P/2010 N1 = 2016 GE216 (WISE)
    
    Observations:
        PK16GL6E  C2016 03 05.55407 15 37 25.910+03 03 48.16         21.7 TLEL036F51
        PK16GL6E  C2016 03 05.56566 15 37 26.735+03 03 51.07         21.8 TLEL036F51
        PK16GL6E  C2016 03 05.57727 15 37 27.586+03 03 53.69         21.6 TLEL036F51
        PK16GL6E  C2016 03 05.58898 15 37 28.452+03 03 56.54         22.1 TLEL036F51
        PK16GL6E  C2016 04 02.53665 16 04 34.298+05 29 55.85         20.8 TLEL036F51
        PK16GL6E  C2016 04 02.54975 16 04 34.757+05 30 00.56         20.8 TLEL036F51
        PK16GL6E  C2016 04 02.57606 16 04 35.674+05 30 09.77         20.5 TLEL036F51
        PK16GL6E  C2016 04 10.58172 16 08 46.305+06 16 14.92         20.5 TLEL036F51
        PK16GL6E  C2016 04 10.59361 16 08 46.547+06 16 18.84         20.5 TLEL036F51
        PK16GL6E  C2016 04 10.60547 16 08 46.791+06 16 22.69         20.5 TLEL036F51
        PK16GL6E  C2016 04 10.61735 16 08 47.047+06 16 26.75         20.5 TLEL036F51
        PK16GL6E  C2016 04 11.06690 16 08 57.93 +06 18 50.8          21.0 TSEL036033
        PK16GL6E  C2016 04 11.06927 16 08 57.98 +06 18 51.7          21.0 TSEL036033
        PK16GL6E  C2016 04 11.07163 16 08 58.04 +06 18 52.4          21.4 TSEL036033
        PK16GL6E  C2016 04 11.11117 16 08 58.85 +06 19 05.5          20.9 TSEL036033
        PK16GL6E  C2016 04 11.11353 16 08 58.92 +06 19 06.3          21.0 TSEL036033
        PK16GL6E  C2016 04 11.11590 16 08 58.96 +06 19 07.0          20.8 TSEL036033
        PK16GL6E KC2016 04 12.37112616 09 26.64 +06 25 55.4          21.0 TuEL036H21
        PK16GL6E KC2016 04 12.37800616 09 26.76 +06 25 57.7          20.9 TuEL036H21
        PK16GL6E KC2016 04 12.38317716 09 26.85 +06 25 59.4          20.6 TuEL036H21
        PK16GL6E 2C2016 04 12.63892016 09 31.882+06 27 23.85         20.5 TtEL036568
        PK16GL6E 2C2016 04 12.63963816 09 31.904+06 27 24.10         20.1 TtEL036568
        PK16GL6E 2C2016 04 12.64038316 09 31.917+06 27 24.38         20.5 TtEL036568
        PK16GL6E 2C2016 04 12.64122016 09 31.931+06 27 24.82         20.2 TtEL036568
        PK16GL6E 2C2016 04 12.64213516 09 31.958+06 27 25.00         20.4 TtEL036568
        PK16GL6E  C2016 04 29.74208 16 10 46.93 +07 32 33.6          19.2 TqEL036D29
        PK16GL6E  C2016 04 29.75799 16 10 46.68 +07 32 34.7          19.0 TqEL036D29
        PK16GL6E  C2016 04 29.77390 16 10 46.48 +07 32 36.8          20.1 TqEL036D29
        PK16GL6E  C2016 05 06.51619 16 08 48.891+07 36 04.05         19.6 TLEL036F51
        PK16GL6E  C2016 05 06.52864 16 08 48.553+07 36 03.52         19.7 TLEL036F51
        PK16GL6E  C2016 05 06.54055 16 08 48.235+07 36 02.86         19.6 TLEL036F51
        PK16GL6E  C2016 05 06.55245 16 08 47.915+07 36 02.26         19.7 TLEL036F51
        PK16GL6E  C2016 05 08.24134 16 08 07.58 +07 34 02.6          19.5 TREL036G45
        PK16GL6E  C2016 05 08.25182 16 08 07.27 +07 34 01.8          19.4 TREL036G45
        PK16GL6E  C2016 05 08.25782 16 08 07.08 +07 34 01.5          19.6 TREL036G45
        PK16GL6E  C2016 05 08.26293 16 08 06.95 +07 34 00.9          19.4 TREL036G45
        PK16GL6E  C2016 05 10.70047 16 07 00.41 +07 28 58.9          19.2 TqEL036D29
        PK16GL6E  C2016 05 10.72169 16 06 59.75 +07 28 55.5          19.3 TqEL036D29
        PK16GL6E  C2016 05 10.74290 16 06 59.05 +07 28 51.8          19.4 TqEL036D29
        PK16GL6E  C2016 05 12.33965 16 06 11.55 +07 24 02.6          19.4 TqEL036703
        PK16GL6E  C2016 05 12.34265 16 06 11.47 +07 24 03.0          19.2 TqEL036703
        PK16GL6E  C2016 05 12.34565 16 06 11.34 +07 24 02.2          19.7 TqEL036703
        PK16GL6E  C2016 05 12.36064 16 06 10.81 +07 23 59.4          19.4 TqEL036703
        PK16GL6E  C2016 05 14.24133 16 05 11.52 +07 16 43.8          19.5 TREL036G45
        PK16GL6E  C2016 05 14.24675 16 05 11.30 +07 16 42.0          19.8 TREL036G45
        PK16GL6E  C2016 05 14.25210 16 05 11.14 +07 16 41.2          19.4 TREL036G45
        PK16GL6E  C2016 05 14.26333 16 05 10.70 +07 16 37.3          19.5 TREL036G45
        PK16GL6E  C2016 05 16.67037 16 03 49.05 +07 04 47.3          19.3 TqEL036D29
        PK16GL6E  C2016 05 16.68864 16 03 48.33 +07 04 40.6          19.9 TqEL036D29
        PK16GL6E  C2016 05 16.70691 16 03 47.62 +07 04 34.1          19.3 TqEL036D29
        PK16GL6E  C2016 05 27.46096 15 57 03.346+05 34 27.33         19.3 TLEL036F51
        PK16GL6E  C2016 05 27.47311 15 57 02.821+05 34 19.12         19.4 TLEL036F51
        PK16GL6E  C2016 05 27.49742 15 57 01.781+05 34 02.62         19.3 TLEL036F51
        PK16GL6E  C2016 05 30.20512 15 55 19.04 +05 01 31.3          19.4 TREL036G45
        PK16GL6E  C2016 05 30.20519 15 55 19.04 +05 01 31.5          19.2 TREL036G45
        PK16GL6E  C2016 05 30.21024 15 55 18.81 +05 01 27.9          19.2 TREL036G45
        PK16GL6E  C2016 05 30.21031 15 55 18.80 +05 01 27.6          19.3 TREL036G45
        PK16GL6E  C2016 05 30.21563 15 55 18.57 +05 01 23.9          19.3 TREL036G45
        PK16GL6E  C2016 05 30.21570 15 55 18.58 +05 01 23.4          19.6 TREL036G45
        PK16GL6E  C2016 05 30.22096 15 55 18.38 +05 01 19.3          19.6 TREL036G45
        PK16GL6E  C2016 05 30.34906 15 55 13.03 +04 59 41.4          19.2 TREL036G45
        PK16GL6E  C2016 05 30.35378 15 55 12.84 +04 59 37.7          19.3 TREL036G45
        PK16GL6E  C2016 05 30.36321 15 55 12.43 +04 59 30.4          19.0 TREL036G45
        PK16GL6E  C2016 05 30.37264 15 55 12.05 +04 59 23.5          19.1 TREL036G45
        PK16GL6E  C2016 05 30.37271 15 55 12.05 +04 59 23.0          19.3 TREL036G45
        PK16GL6E  C2016 06 04.41613 15 52 10.189+03 48 19.07         19.2 TLEL036F51
        PK16GL6E  C2016 06 04.42938 15 52 09.677+03 48 06.85         19.1 TLEL036F51
        PK16GL6E  C2016 06 04.44257 15 52 09.166+03 47 54.66         19.3 TLEL036F51
    
    Observer details:
    033 Karl Schwarzschild Observatory, Tautenburg.  Observers B. Stecklum,
        F. Ludwig.  Measurers B. Stecklum, S. Kurze.  1.34-m f/3 Schmidt + CCD.
    568 Mauna Kea.  Observer D. Fohring, D. J. Tholen, Y. Ramanjooloo.  Measurer
        D. J. Tholen.  2.24-m University of Hawaii reflector + CCD.
    703 Catalina Sky Survey.  Observer J. A. Johnson.  Measurers E. J. Christensen,
        D. C. Fuls, A. R. Gibbs, A. D. Grauer, J. A. Johnson, R. A. Kowalski,
        S. M. Larson, G. J. Leonard, R. G. Matheny, R. L. Seaman, F. C. Shelly.
        0.68-m Schmidt + CCD.
    D29 Purple Mountain Observatory, XuYi Station.  Observers H. B. Zhao, B. Li,
        G. Zhaori, R. Q. Hong, L. F. Hu, B. Mei, X. P. Lu, R. Q. Honag.  Measurers
        H. B. Zhao, B. Li. H. Lu, G. Zhaori.  1.04-m f/1.8 Schmidt + CCD.
    F51 Pan-STARRS 1, Haleakala.  Observers B. Gibson, T. Goggia, N. Primak,
        A. Schultz, M. Willman.  Measurers K. Chambers, S. Chastel, L. Denneau,
        H. Flewelling, M. Huber, E. Lilly, E. Magnier, R. Wainscoat, C. Waters,
        R. Weryk.  1.8-m Ritchey-Chretien + CCD.
    G45 Space Surveillance Telescope, Atom Site.  Observers M. Blythe, R. Brungard,
        P. Festler, T. McVey, J. Paige, G. Spitz.  Measurers M. Cornell, A. Klein,
        J. Ruprecht, G. Ushomirsky, J. Varey, D. Woods.  3.5-m f/1 reflector + CCD.
    H21 Astronomical Research Observatory, Westfield.  Observer R. Holmes.
        Measurers S. Foglia, L. Buzzi, T. Linder, R. Holmes.  0.61-m f/4.5
        astrograph + CCD.
    
    Orbital elements:
        P/2010 N1 = 2016 GE216 (WISE)
    Epoch 2010 Sept. 1.0 TT = JDT 2455440.5
    T 2010 Aug. 16.15775 TT                                 MPCW
    q   1.4945010            (2000.0)            P               Q
    n   0.17178716     Peri.  153.49712     -0.04708613     +0.97767002
    a   3.2048589      Node   113.21236     -0.95146734     +0.01852651
    e   0.5336765      Incl.   12.87601     -0.30412627     -0.20932775
    P   5.74
    From 110 observations 2010 Apr. 13-2016 June 4, mean residual 0".3.
    
        P/2010 N1 = 2016 GE216 (WISE)
    Epoch 2016 July 31.0 TT = JDT 2457600.5
    T 2016 July 13.23045 TT                                 MPCW
    q   1.6545582            (2000.0)            P               Q
    n   0.16542538     Peri.  160.86057     -0.04162866     +0.96615238
    a   3.2865075      Node   106.10766     -0.94777441     +0.04245949
    e   0.4965603      Incl.   15.36661     -0.31621309     -0.25445386
    P   5.96
    From 110 observations 2010 Apr. 13-2016 June 4, mean residual 0".3.
    
        P/2010 N1 = 2016 GE216 (WISE)
    Epoch 2022 June 30.0 TT = JDT 2459760.5
    T 2022 July 1.16294 TT                                  MPCW
    q   1.6540620            (2000.0)            P               Q
    n   0.16549587     Peri.  161.03510     -0.03949527     +0.96620598
    a   3.2855742      Node   106.06066     -0.94761971     +0.04464371
    e   0.4965684      Incl.   15.37132     -0.31694953     -0.25387585
    P   5.96
    From 110 observations 2010 Apr. 13-2016 June 4, mean residual 0".3.
    
    Ephemeris:
        P/2010 N1 = 2016 GE216 (WISE)
    Date    TT    R. A. (2000) Decl.     Delta      r     Elong.  Phase   m1    m2
    2016 05 06    16 09 00.7 +07 36 28   0.8280  1.7723   149.4    16.9  19.1
    ...
    2016 05 21    16 01 11.5 +06 36 02   0.7634  1.7278   153.1    15.4  18.8
    ...
    2016 05 29    15 56 04.5 +05 16 34   0.7445  1.7080   152.2    16.0  18.7
    ...
    2016 06 04    15 52 24.6 +03 54 45   0.7376  1.6950   150.3    17.3  18.6
    2016 06 05    15 51 50.6 +03 39 20   0.7371  1.6930   149.9    17.5  18.6
    2016 06 06    15 51 17.5 +03 23 26   0.7367  1.6911   149.4    17.8  18.6
    ...
    2016 06 12    15 48 25.6 +01 38 27   0.7380  1.6804   146.4    19.6  18.6
    ...
    2016 06 20    15 46 07.6 -01 03 13   0.7489  1.6689   141.6    22.2  18.6
    ...
    2016 07 05    15 47 49.7 -06 47 21   0.7954  1.6564   131.7    27.3  18.7
    
         The identification was by E. Schwab.
    
    Gareth V. Williams           (C) Copyright 2016 MPC           M.P.E.C. 2016-L36
    

    Read MPEC 2016-L35 Read MPEC 2016-L37


    MPEC number:

    Enter an MPEC number in one of the following forms:

    • 1997-B01 (the full form)
    • J97B01 (the packed version of the full form)
    • B01 (the abbreviated form)